ONEWEB-0413

operational
NORAD ID: 50490 Int'l Des: 2021-132 Owner: ONEWEBN Country: UK Constellation: oneweb
LEOCIRCULARPOLARONEWEB_TYPE

ONEWEB-0413について

説明を読み込み中...

リアルタイム位置

3D地球を読み込み中...

次回通過

高度履歴

Altitude vs Time

uPlot chart will show altitude changes over time

軌道要素

1 50490U 21132X 25250.09004299 -.00000003 00000-0 -39185-4 0 9999
2 50490 87.9177 31.6888 0001556 84.9053 275.2257 13.18687280184286
Epoch: Sep 7, 2025 • Age: 18 hours

現在のステータス

高度 1191.6 km
速度 7.26 km/s
衛星直下点 17.17°N, 98.15°E
打ち上げ日 Dec 27, 2021
運用期間 3.6 years
タイプ internet

技術仕様

分類 Payload
質量 148.00 kg
乾燥質量 140.00 kg
総質量 148.00 kg
長さ 1.30 m
直径 1.00 m
スパン 5.00 m
形状 Trapezoid+2 pan
製造者 ONEWUS
バスタイプ ARROW
フェーズステータス In Orbit
所有者/国 ONEWEBN/UK

大規模コンステレーション

Loading constellations...